Tracking 33744 objects as of 12-Apr-2026
HD Live streaming from Space Station
objects crossing your sky now

GAOFEN 9 04

Track GAOFEN 9 04 now!
10-day predictions


NORAD ID: 46025
Int'l Code: 2020-054A
Perigee: 458.8 km
Apogee: 472.2 km
Inclination: 97.2 °
Period: 93.8 minutes
Semi major axis: 6836 km
RCS: Unknown
Launch date: August 6, 2020
Source: People's Republic of China (PRC)
Launch site: Jiuquan Satellite Launch Center, China (JSC)
Your satellite tracking list
Your tracking list is empty




NASA's NSSDC Master Catalog

Two Line Element Set (TLE):
1 46025U 20054A   26101.98013953  .00008708  00000-0  25141-3 0  9995
2 46025  97.2479 171.9433 0009856 337.2933  22.7874 15.35863013316198
Source of the keplerian elements: AFSPC